Year,Month,Day,Hour,Minute,Value (Times are PST for temperature in C)
2014,08,18,00,00,18.40
2014,08,18,00,01,18.40
2014,08,18,00,02,18.40
2014,08,18,00,03,18.30
2014,08,18,00,04,18.30
2014,08,18,00,05,18.30
2014,08,18,00,06,18.30
2014,08,18,00,07,18.30
2014,08,18,00,08,18.30
2014,08,18,00,09,18.30
2014,08,18,00,10,18.30
2014,08,18,00,11,18.30
2014,08,18,00,12,18.30
2014,08,18,00,13,18.20
2014,08,18,00,14,18.20
2014,08,18,00,15,18.20
2014,08,18,00,16,18.20
2014,08,18,00,17,18.20
2014,08,18,00,18,18.20
2014,08,18,00,19,18.20
2014,08,18,00,20,18.20
2014,08,18,00,21,18.10
2014,08,18,00,22,18.10
2014,08,18,00,23,18.10
2014,08,18,00,24,18.10
2014,08,18,00,25,18.10
2014,08,18,00,26,18.10
2014,08,18,00,27,18.00
2014,08,18,00,28,18.00
2014,08,18,00,29,18.00
2014,08,18,00,30,18.00
2014,08,18,00,31,17.90
2014,08,18,00,32,17.90
2014,08,18,00,33,17.90
2014,08,18,00,34,17.90
2014,08,18,00,35,17.90
2014,08,18,00,36,17.90
2014,08,18,00,37,17.80
2014,08,18,00,38,17.80
2014,08,18,00,39,17.80
2014,08,18,00,40,17.80
2014,08,18,00,41,17.80
2014,08,18,00,42,17.80
2014,08,18,00,43,17.70
2014,08,18,00,44,17.70
2014,08,18,00,45,17.70
2014,08,18,00,46,17.70
2014,08,18,00,47,17.70
2014,08,18,00,48,17.70
2014,08,18,00,49,17.70
2014,08,18,00,50,17.70
2014,08,18,00,51,17.70
2014,08,18,00,52,17.70
2014,08,18,00,53,17.70
2014,08,18,00,54,17.70
2014,08,18,00,55,17.70
2014,08,18,00,56,17.70
2014,08,18,00,57,17.70
2014,08,18,00,58,17.70
2014,08,18,00,59,17.70
2014,08,18,01,00,17.70
2014,08,18,01,01,17.70
2014,08,18,01,02,17.70
2014,08,18,01,03,17.70
2014,08,18,01,04,17.70
2014,08,18,01,05,17.60
2014,08,18,01,06,17.60
2014,08,18,01,07,17.60
2014,08,18,01,08,17.60
2014,08,18,01,09,17.60
2014,08,18,01,10,17.60
2014,08,18,01,11,17.60
2014,08,18,01,12,17.60
2014,08,18,01,13,17.60
2014,08,18,01,14,17.60
2014,08,18,01,15,17.50
2014,08,18,01,16,17.50
2014,08,18,01,17,17.50
2014,08,18,01,18,17.50
2014,08,18,01,19,17.50
2014,08,18,01,20,17.40
2014,08,18,01,21,17.40
2014,08,18,01,22,17.40
2014,08,18,01,23,17.40
2014,08,18,01,24,17.40
2014,08,18,01,25,17.40
2014,08,18,01,26,17.40
2014,08,18,01,27,17.40
2014,08,18,01,28,17.40
2014,08,18,01,29,17.40
2014,08,18,01,30,17.40
2014,08,18,01,31,17.30
2014,08,18,01,32,17.30
2014,08,18,01,33,17.30
2014,08,18,01,34,17.30
2014,08,18,01,35,17.30
2014,08,18,01,36,17.30
2014,08,18,01,37,17.30
2014,08,18,01,38,17.30
2014,08,18,01,39,17.30
2014,08,18,01,40,17.30
2014,08,18,01,41,17.30
2014,08,18,01,42,17.30
2014,08,18,01,43,17.30
2014,08,18,01,44,17.30
2014,08,18,01,45,17.30
2014,08,18,01,46,17.20
2014,08,18,01,47,17.20
2014,08,18,01,48,17.20
2014,08,18,01,49,17.20
2014,08,18,01,50,17.20
2014,08,18,01,51,17.20
2014,08,18,01,52,17.20
2014,08,18,01,53,17.20
2014,08,18,01,54,17.20
2014,08,18,01,55,17.20
2014,08,18,01,56,17.20
2014,08,18,01,57,17.20
2014,08,18,01,58,17.10
2014,08,18,01,59,17.10
2014,08,18,02,00,17.10
2014,08,18,02,01,17.10
2014,08,18,02,02,17.10
2014,08,18,02,03,17.10
2014,08,18,02,04,17.10
2014,08,18,02,05,17.10
2014,08,18,02,06,17.10
2014,08,18,02,07,17.10
2014,08,18,02,08,17.10
2014,08,18,02,09,17.10
2014,08,18,02,10,17.10
2014,08,18,02,11,17.10
2014,08,18,02,12,17.10
2014,08,18,02,13,17.10
2014,08,18,02,14,17.10
2014,08,18,02,15,17.10
2014,08,18,02,16,17.10
2014,08,18,02,17,17.10
2014,08,18,02,18,17.00
2014,08,18,02,19,17.00
2014,08,18,02,20,17.00
2014,08,18,02,21,17.00
2014,08,18,02,22,17.00
2014,08,18,02,23,17.00
2014,08,18,02,24,17.00
2014,08,18,02,25,17.00
2014,08,18,02,26,17.00
2014,08,18,02,27,17.00
2014,08,18,02,28,17.00
2014,08,18,02,29,17.00
2014,08,18,02,30,17.00
2014,08,18,02,31,17.00
2014,08,18,02,32,17.00
2014,08,18,02,33,17.00
2014,08,18,02,34,17.00
2014,08,18,02,35,17.10
2014,08,18,02,36,17.00
2014,08,18,02,37,17.10
2014,08,18,02,38,17.10
2014,08,18,02,39,17.10
2014,08,18,02,40,17.10
2014,08,18,02,41,17.10
2014,08,18,02,42,17.10
2014,08,18,02,43,17.10
2014,08,18,02,44,17.10
2014,08,18,02,45,17.10
2014,08,18,02,46,17.00
2014,08,18,02,47,17.00
2014,08,18,02,48,17.00
2014,08,18,02,49,17.00
2014,08,18,02,50,17.00
2014,08,18,02,51,16.90
2014,08,18,02,52,16.90
2014,08,18,02,53,16.90
2014,08,18,02,54,16.90
2014,08,18,02,55,16.90
2014,08,18,02,56,16.90
2014,08,18,02,57,16.90
2014,08,18,02,58,16.90
2014,08,18,02,59,16.90
2014,08,18,03,00,16.90
2014,08,18,03,01,16.90
2014,08,18,03,02,16.80
2014,08,18,03,03,16.80
2014,08,18,03,04,16.80
2014,08,18,03,05,16.80
2014,08,18,03,06,16.80
2014,08,18,03,07,16.80
2014,08,18,03,08,16.80
2014,08,18,03,09,16.80
2014,08,18,03,10,16.80
2014,08,18,03,11,16.80
2014,08,18,03,12,16.80
2014,08,18,03,13,16.80
2014,08,18,03,14,16.80
2014,08,18,03,15,16.70
2014,08,18,03,16,16.70
2014,08,18,03,17,16.70
2014,08,18,03,18,16.70
2014,08,18,03,19,16.70
2014,08,18,03,20,16.70
2014,08,18,03,21,16.70
2014,08,18,03,22,16.70
2014,08,18,03,23,16.70
2014,08,18,03,24,16.60
2014,08,18,03,25,16.60
2014,08,18,03,26,16.60
2014,08,18,03,27,16.60
2014,08,18,03,28,16.60
2014,08,18,03,29,16.60
2014,08,18,03,30,16.60
2014,08,18,03,31,16.60
2014,08,18,03,32,16.60
2014,08,18,03,33,16.60
2014,08,18,03,34,16.60
2014,08,18,03,35,16.50
2014,08,18,03,36,16.50
2014,08,18,03,37,16.50
2014,08,18,03,38,16.50
2014,08,18,03,39,16.50
2014,08,18,03,40,16.50
2014,08,18,03,41,16.50
2014,08,18,03,42,16.40
2014,08,18,03,43,16.40
2014,08,18,03,44,16.40
2014,08,18,03,45,16.40
2014,08,18,03,46,16.40
2014,08,18,03,47,16.40
2014,08,18,03,48,16.40
2014,08,18,03,49,16.40
2014,08,18,03,50,16.40
2014,08,18,03,51,16.30
2014,08,18,03,52,16.30
2014,08,18,03,53,16.30
2014,08,18,03,54,16.30
2014,08,18,03,55,16.30
2014,08,18,03,56,16.30
2014,08,18,03,57,16.30
2014,08,18,03,58,16.30
2014,08,18,03,59,16.30
2014,08,18,04,00,16.30
2014,08,18,04,01,16.30
2014,08,18,04,02,16.20
2014,08,18,04,03,16.20
2014,08,18,04,04,16.20
2014,08,18,04,05,16.20
2014,08,18,04,06,16.20
2014,08,18,04,07,16.20
2014,08,18,04,08,16.20
2014,08,18,04,09,16.20
2014,08,18,04,10,16.20
2014,08,18,04,11,16.20
2014,08,18,04,12,16.20
2014,08,18,04,13,16.20
2014,08,18,04,14,16.10
2014,08,18,04,15,16.10
2014,08,18,04,16,16.10
2014,08,18,04,17,16.10
2014,08,18,04,18,16.10
2014,08,18,04,19,16.10
2014,08,18,04,20,16.10
2014,08,18,04,21,16.10
2014,08,18,04,22,16.10
2014,08,18,04,23,16.10
2014,08,18,04,24,16.10
2014,08,18,04,25,16.10
2014,08,18,04,26,16.10
2014,08,18,04,27,16.10
2014,08,18,04,28,16.10
2014,08,18,04,29,16.10
2014,08,18,04,30,16.10
2014,08,18,04,31,16.10
2014,08,18,04,32,16.10
2014,08,18,04,33,16.10
2014,08,18,04,34,16.00
2014,08,18,04,35,16.00
2014,08,18,04,36,16.00
2014,08,18,04,37,16.00
2014,08,18,04,38,16.00
2014,08,18,04,39,16.00
2014,08,18,04,40,16.00
2014,08,18,04,41,16.00
2014,08,18,04,42,16.00
2014,08,18,04,43,16.00
2014,08,18,04,44,15.90
2014,08,18,04,45,15.90
2014,08,18,04,46,15.90
2014,08,18,04,47,15.90
2014,08,18,04,48,15.90
2014,08,18,04,49,15.90
2014,08,18,04,50,16.00
2014,08,18,04,51,15.90
2014,08,18,04,52,15.90
2014,08,18,04,53,15.90
2014,08,18,04,54,15.90
2014,08,18,04,55,16.00
2014,08,18,04,56,16.00
2014,08,18,04,57,16.00
2014,08,18,04,58,16.00
2014,08,18,04,59,16.10
2014,08,18,05,00,16.10
2014,08,18,05,01,16.10
2014,08,18,05,02,16.10
2014,08,18,05,03,16.10
2014,08,18,05,04,16.10
2014,08,18,05,05,16.10
2014,08,18,05,06,16.10
2014,08,18,05,07,16.10
2014,08,18,05,08,16.10
2014,08,18,05,09,16.10
2014,08,18,05,10,16.10
2014,08,18,05,11,16.10
2014,08,18,05,12,16.10
2014,08,18,05,13,16.10
2014,08,18,05,14,16.10
2014,08,18,05,15,16.10
2014,08,18,05,16,16.10
2014,08,18,05,17,16.10
2014,08,18,05,18,16.10
2014,08,18,05,19,16.10
2014,08,18,05,20,16.10
2014,08,18,05,21,16.10
2014,08,18,05,22,16.20
2014,08,18,05,23,16.20
2014,08,18,05,24,16.20
2014,08,18,05,25,16.20
2014,08,18,05,26,16.20
2014,08,18,05,27,16.20
2014,08,18,05,28,16.20
2014,08,18,05,29,16.10
2014,08,18,05,30,16.10
2014,08,18,05,31,16.10
2014,08,18,05,32,16.10
2014,08,18,05,33,16.10
2014,08,18,05,34,16.10
2014,08,18,05,35,16.10
2014,08,18,05,36,16.10
2014,08,18,05,37,16.10
2014,08,18,05,38,16.10
2014,08,18,05,39,16.10
2014,08,18,05,40,16.10
2014,08,18,05,41,16.10
2014,08,18,05,42,16.10
2014,08,18,05,43,16.10
2014,08,18,05,44,16.10
2014,08,18,05,45,16.10
2014,08,18,05,46,16.10
2014,08,18,05,47,16.10
2014,08,18,05,48,16.10
2014,08,18,05,49,16.10
2014,08,18,05,50,16.10
2014,08,18,05,51,16.10
2014,08,18,05,52,16.10
2014,08,18,05,53,16.10
2014,08,18,05,54,16.10
2014,08,18,05,55,16.10
2014,08,18,05,56,16.10
2014,08,18,05,57,16.10
2014,08,18,05,58,16.10
2014,08,18,05,59,16.00
2014,08,18,06,00,16.00
2014,08,18,06,01,16.00
2014,08,18,06,02,16.00
2014,08,18,06,03,16.00
2014,08,18,06,04,16.00
2014,08,18,06,05,16.00
2014,08,18,06,06,16.00
2014,08,18,06,07,15.90
2014,08,18,06,08,15.90
2014,08,18,06,09,15.90
2014,08,18,06,10,15.90
2014,08,18,06,11,15.90
2014,08,18,06,12,15.90
2014,08,18,06,13,15.90
2014,08,18,06,14,15.90
2014,08,18,06,15,15.90
2014,08,18,06,16,15.90
2014,08,18,06,17,15.90
2014,08,18,06,18,15.90
2014,08,18,06,19,15.90
2014,08,18,06,20,15.90
2014,08,18,06,21,15.90
2014,08,18,06,22,15.90
2014,08,18,06,23,15.90
2014,08,18,06,24,15.90
2014,08,18,06,25,15.90
2014,08,18,06,26,15.90
2014,08,18,06,27,15.90
2014,08,18,06,28,15.90
2014,08,18,06,29,15.90
2014,08,18,06,30,15.90
2014,08,18,06,31,15.90
2014,08,18,06,32,15.90
2014,08,18,06,33,15.90
2014,08,18,06,34,15.90
2014,08,18,06,35,15.90
2014,08,18,06,36,15.90
2014,08,18,06,37,15.90
2014,08,18,06,38,15.80
2014,08,18,06,39,15.80
2014,08,18,06,40,15.90
2014,08,18,06,41,15.90
2014,08,18,06,42,15.90
2014,08,18,06,43,15.90
2014,08,18,06,44,15.90
2014,08,18,06,45,15.90
2014,08,18,06,46,15.90
2014,08,18,06,47,15.90
2014,08,18,06,48,15.90
2014,08,18,06,49,15.90
2014,08,18,06,50,15.90
2014,08,18,06,51,15.90
2014,08,18,06,52,15.90
2014,08,18,06,53,15.90
2014,08,18,06,54,15.90
2014,08,18,06,55,15.90
2014,08,18,06,56,15.90
2014,08,18,06,57,15.90
2014,08,18,06,58,15.90
2014,08,18,06,59,15.90
2014,08,18,07,00,15.90
2014,08,18,07,01,15.90
2014,08,18,07,02,15.90
2014,08,18,07,03,15.90
2014,08,18,07,04,15.90
2014,08,18,07,05,15.90
2014,08,18,07,06,15.90
2014,08,18,07,07,15.90
2014,08,18,07,08,15.90
2014,08,18,07,09,15.90
2014,08,18,07,10,15.90
2014,08,18,07,11,15.90
2014,08,18,07,12,15.90
2014,08,18,07,13,15.90
2014,08,18,07,14,16.00
2014,08,18,07,15,16.00
2014,08,18,07,16,16.00
2014,08,18,07,17,16.00
2014,08,18,07,18,16.00
2014,08,18,07,19,16.00
2014,08,18,07,20,16.00
2014,08,18,07,21,16.00
2014,08,18,07,22,16.00
2014,08,18,07,23,16.00
2014,08,18,07,24,16.00
2014,08,18,07,25,16.00
2014,08,18,07,26,16.00
2014,08,18,07,27,16.10
2014,08,18,07,28,16.10
2014,08,18,07,29,16.10
2014,08,18,07,30,16.10
2014,08,18,07,31,16.10
2014,08,18,07,32,16.10
2014,08,18,07,33,16.10
2014,08,18,07,34,16.20
2014,08,18,07,35,16.20
2014,08,18,07,36,16.20
2014,08,18,07,37,16.20
2014,08,18,07,38,16.20
2014,08,18,07,39,16.20
2014,08,18,07,40,16.30
2014,08,18,07,41,16.30
2014,08,18,07,42,16.30
2014,08,18,07,43,16.30
2014,08,18,07,44,16.30
2014,08,18,07,45,16.40
2014,08,18,07,46,16.40
2014,08,18,07,47,16.40
2014,08,18,07,48,16.40
2014,08,18,07,49,16.40
2014,08,18,07,50,16.40
2014,08,18,07,51,16.50
2014,08,18,07,52,16.50
2014,08,18,07,53,16.50
2014,08,18,07,54,16.50
2014,08,18,07,55,16.50
2014,08,18,07,56,16.50
2014,08,18,07,57,16.50
2014,08,18,07,58,16.60
2014,08,18,07,59,16.60
2014,08,18,08,00,16.60
2014,08,18,08,01,16.60
2014,08,18,08,02,16.60
2014,08,18,08,03,16.70
2014,08,18,08,04,16.70
2014,08,18,08,05,16.70
2014,08,18,08,06,16.70
2014,08,18,08,07,16.70
2014,08,18,08,08,16.70
2014,08,18,08,09,16.70
2014,08,18,08,10,16.70
2014,08,18,08,11,16.70
2014,08,18,08,12,16.70
2014,08,18,08,13,16.70
2014,08,18,08,14,16.70
2014,08,18,08,15,16.70
2014,08,18,08,16,16.80
2014,08,18,08,17,16.80
2014,08,18,08,18,16.80
2014,08,18,08,19,16.90
2014,08,18,08,20,16.90
2014,08,18,08,21,17.00
2014,08,18,08,22,17.00
2014,08,18,08,23,17.10
2014,08,18,08,24,17.20
2014,08,18,08,25,17.20
2014,08,18,08,26,17.20
2014,08,18,08,27,17.30
2014,08,18,08,28,17.30
2014,08,18,08,29,17.30
2014,08,18,08,30,17.30
2014,08,18,08,31,17.30
2014,08,18,08,32,17.30
2014,08,18,08,33,17.30
2014,08,18,08,34,17.30
2014,08,18,08,35,17.30
2014,08,18,08,36,17.30
2014,08,18,08,37,17.30
2014,08,18,08,38,17.30
2014,08,18,08,39,17.40
2014,08,18,08,40,17.40
2014,08,18,08,41,17.40
2014,08,18,08,42,17.40
2014,08,18,08,43,17.40
2014,08,18,08,44,17.40
2014,08,18,08,45,17.40
2014,08,18,08,46,17.40
2014,08,18,08,47,17.40
2014,08,18,08,48,17.40
2014,08,18,08,49,17.40
2014,08,18,08,50,17.40
2014,08,18,08,51,17.40
2014,08,18,08,52,17.40
2014,08,18,08,53,17.40
2014,08,18,08,54,17.40
2014,08,18,08,55,17.40
2014,08,18,08,56,17.40
2014,08,18,08,57,17.40
2014,08,18,08,58,17.40
2014,08,18,08,59,17.40
2014,08,18,09,00,17.40
2014,08,18,09,01,17.40
2014,08,18,09,02,17.40
2014,08,18,09,03,17.40
2014,08,18,09,04,17.40
2014,08,18,09,05,17.50
2014,08,18,09,06,17.50
2014,08,18,09,07,17.50
2014,08,18,09,08,17.60
2014,08,18,09,09,17.60
2014,08,18,09,10,17.60
2014,08,18,09,11,17.70
2014,08,18,09,12,17.70
2014,08,18,09,13,17.70
2014,08,18,09,14,17.80
2014,08,18,09,15,17.80
2014,08,18,09,16,17.80
2014,08,18,09,17,17.80
2014,08,18,09,18,17.80
2014,08,18,09,19,17.80
2014,08,18,09,20,17.80
2014,08,18,09,21,17.80
2014,08,18,09,22,17.80
2014,08,18,09,23,17.90
2014,08,18,09,24,17.90
2014,08,18,09,25,17.90
2014,08,18,09,26,18.00
2014,08,18,09,27,18.00
2014,08,18,09,28,18.10
2014,08,18,09,29,18.10
2014,08,18,09,30,18.10
2014,08,18,09,31,18.10
2014,08,18,09,32,18.10
2014,08,18,09,33,18.10
2014,08,18,09,34,18.10
2014,08,18,09,35,18.10
2014,08,18,09,36,18.10
2014,08,18,09,37,18.10
2014,08,18,09,38,18.10
2014,08,18,09,39,18.20
2014,08,18,09,40,18.20
2014,08,18,09,41,18.20
2014,08,18,09,42,18.20
2014,08,18,09,43,18.20
2014,08,18,09,44,18.20
2014,08,18,09,45,18.20
2014,08,18,09,46,18.20
2014,08,18,09,47,18.20
2014,08,18,09,48,18.20
2014,08,18,09,49,18.20
2014,08,18,09,50,18.20
2014,08,18,09,51,18.20
2014,08,18,09,52,18.20
2014,08,18,09,53,18.20
2014,08,18,09,54,18.30
2014,08,18,09,55,18.30
2014,08,18,09,56,18.30
2014,08,18,09,57,18.30
2014,08,18,09,58,18.30
2014,08,18,09,59,18.30
2014,08,18,10,00,18.30
2014,08,18,10,01,18.30
2014,08,18,10,02,18.30
2014,08,18,10,03,18.20
2014,08,18,10,04,18.20
2014,08,18,10,05,18.20
2014,08,18,10,06,18.20
2014,08,18,10,07,18.10
2014,08,18,10,08,18.10
2014,08,18,10,09,18.10
2014,08,18,10,10,18.00
2014,08,18,10,11,18.00
2014,08,18,10,12,18.00
2014,08,18,10,13,18.00
2014,08,18,10,14,18.00
2014,08,18,10,15,17.90
2014,08,18,10,16,17.90
2014,08,18,10,17,17.90
2014,08,18,10,18,17.90
2014,08,18,10,19,17.90
2014,08,18,10,20,18.00
2014,08,18,10,21,18.00
2014,08,18,10,22,18.10
2014,08,18,10,23,18.10
2014,08,18,10,24,18.20
2014,08,18,10,25,18.20
2014,08,18,10,26,18.20
2014,08,18,10,27,18.30
2014,08,18,10,28,18.30
2014,08,18,10,29,18.30
2014,08,18,10,30,18.30
2014,08,18,10,31,18.20
2014,08,18,10,32,18.20
2014,08,18,10,33,18.20
2014,08,18,10,34,18.20
2014,08,18,10,35,18.20
2014,08,18,10,36,18.20
2014,08,18,10,37,18.20
2014,08,18,10,38,18.20
2014,08,18,10,39,18.20
2014,08,18,10,40,18.20
2014,08,18,10,41,18.20
2014,08,18,10,42,18.20
2014,08,18,10,43,18.20
2014,08,18,10,44,18.20
2014,08,18,10,45,18.30
2014,08,18,10,46,18.30
2014,08,18,10,47,18.30
2014,08,18,10,48,18.30
2014,08,18,10,49,18.30
2014,08,18,10,50,18.40
2014,08,18,10,51,18.40
2014,08,18,10,52,18.40
2014,08,18,10,53,18.40
2014,08,18,10,54,18.40
2014,08,18,10,55,18.50
2014,08,18,10,56,18.50
2014,08,18,10,57,18.60
2014,08,18,10,58,18.60
2014,08,18,10,59,18.70
2014,08,18,11,00,18.80
2014,08,18,11,01,18.80
2014,08,18,11,02,18.90
2014,08,18,11,03,19.00
2014,08,18,11,04,19.10
2014,08,18,11,05,19.20
2014,08,18,11,06,19.20
2014,08,18,11,07,19.30
2014,08,18,11,08,19.40
2014,08,18,11,09,19.60
2014,08,18,11,10,19.70
2014,08,18,11,11,19.80
2014,08,18,11,12,19.90
2014,08,18,11,13,19.90
2014,08,18,11,14,20.00
2014,08,18,11,15,20.10
2014,08,18,11,16,20.10
2014,08,18,11,17,20.10
2014,08,18,11,18,20.10
2014,08,18,11,19,20.00
2014,08,18,11,20,20.00
2014,08,18,11,21,20.00
2014,08,18,11,22,20.00
2014,08,18,11,23,20.10
2014,08,18,11,24,20.30
2014,08,18,11,25,20.40
2014,08,18,11,26,20.50
2014,08,18,11,27,20.70
2014,08,18,11,28,20.80
2014,08,18,11,29,20.90
2014,08,18,11,30,20.90
2014,08,18,11,31,21.00
2014,08,18,11,32,21.00
2014,08,18,11,33,21.10
2014,08,18,11,34,21.10
2014,08,18,11,35,21.10
2014,08,18,11,36,21.10
2014,08,18,11,37,21.10
2014,08,18,11,38,21.10
2014,08,18,11,39,21.10
2014,08,18,11,40,21.10
2014,08,18,11,41,21.10
2014,08,18,11,42,21.10
2014,08,18,11,43,21.20
2014,08,18,11,44,21.20
2014,08,18,11,45,21.20
2014,08,18,11,46,21.30
2014,08,18,11,47,21.40
2014,08,18,11,48,21.50
2014,08,18,11,49,21.60
2014,08,18,11,50,21.70
2014,08,18,11,51,21.80
2014,08,18,11,52,21.90
2014,08,18,11,53,21.90
2014,08,18,11,54,22.00
2014,08,18,11,55,22.00
2014,08,18,11,56,22.00
2014,08,18,11,57,22.00
2014,08,18,11,58,21.90
2014,08,18,11,59,21.90
2014,08,18,12,00,21.80
2014,08,18,12,01,21.70
2014,08,18,12,02,21.70
2014,08,18,12,03,21.70
2014,08,18,12,04,21.60
2014,08,18,12,05,21.60
2014,08,18,12,06,21.60
2014,08,18,12,07,21.60
2014,08,18,12,08,21.60
2014,08,18,12,09,21.50
2014,08,18,12,10,21.50
2014,08,18,12,11,21.50
2014,08,18,12,12,21.50
2014,08,18,12,13,21.50
2014,08,18,12,14,21.50
2014,08,18,12,15,21.50
2014,08,18,12,16,21.50
2014,08,18,12,17,21.50
2014,08,18,12,18,21.50
2014,08,18,12,19,21.60
2014,08,18,12,20,21.60
2014,08,18,12,21,21.70
2014,08,18,12,22,21.70
2014,08,18,12,23,21.90
2014,08,18,12,24,22.00
2014,08,18,12,25,22.10
2014,08,18,12,26,22.20
2014,08,18,12,27,22.30
2014,08,18,12,28,22.40
2014,08,18,12,29,22.60
2014,08,18,12,30,22.60
2014,08,18,12,31,22.60
2014,08,18,12,32,22.60
2014,08,18,12,33,22.50
2014,08,18,12,34,22.50
2014,08,18,12,35,22.50
2014,08,18,12,36,22.50
2014,08,18,12,37,22.50
2014,08,18,12,38,22.60
2014,08,18,12,39,22.60
2014,08,18,12,40,22.70
2014,08,18,12,41,22.70
2014,08,18,12,42,22.80
2014,08,18,12,43,22.80
2014,08,18,12,44,22.90
2014,08,18,12,45,22.90
2014,08,18,12,46,23.00
2014,08,18,12,47,23.10
2014,08,18,12,48,23.10
2014,08,18,12,49,23.20
2014,08,18,12,50,23.20
2014,08,18,12,51,23.30
2014,08,18,12,52,23.30
2014,08,18,12,53,23.30
2014,08,18,12,54,23.30
2014,08,18,12,55,23.30
2014,08,18,12,56,23.30
2014,08,18,12,57,23.30
2014,08,18,12,58,23.30
2014,08,18,12,59,23.30
2014,08,18,13,00,23.20
2014,08,18,13,01,23.20
2014,08,18,13,02,23.20
2014,08,18,13,03,23.20
2014,08,18,13,04,23.30
2014,08,18,13,05,23.30
2014,08,18,13,06,23.40
2014,08,18,13,07,23.50
2014,08,18,13,08,23.60
2014,08,18,13,09,23.70
2014,08,18,13,10,23.70
2014,08,18,13,11,23.70
2014,08,18,13,12,23.70
2014,08,18,13,13,23.80
2014,08,18,13,14,23.80
2014,08,18,13,15,23.80
2014,08,18,13,16,23.80
2014,08,18,13,17,23.80
2014,08,18,13,18,23.80
2014,08,18,13,19,23.80
2014,08,18,13,20,23.80
2014,08,18,13,21,23.90
2014,08,18,13,22,23.90
2014,08,18,13,23,24.00
2014,08,18,13,24,24.00
2014,08,18,13,25,24.00
2014,08,18,13,26,23.90
2014,08,18,13,27,23.90
2014,08,18,13,28,23.80
2014,08,18,13,29,23.80
2014,08,18,13,30,23.80
2014,08,18,13,31,23.80
2014,08,18,13,32,23.80
2014,08,18,13,33,23.70
2014,08,18,13,34,23.70
2014,08,18,13,35,23.60
2014,08,18,13,36,23.60
2014,08,18,13,37,23.60
2014,08,18,13,38,23.50
2014,08,18,13,39,23.40
2014,08,18,13,40,23.40
2014,08,18,13,41,23.40
2014,08,18,13,42,23.40
2014,08,18,13,43,23.40
2014,08,18,13,44,23.40
2014,08,18,13,45,23.40
2014,08,18,13,46,23.40
2014,08,18,13,47,23.40
2014,08,18,13,48,23.40
2014,08,18,13,49,23.30
2014,08,18,13,50,23.30
2014,08,18,13,51,23.30
2014,08,18,13,52,23.30
2014,08,18,13,53,23.30
2014,08,18,13,54,23.30
2014,08,18,13,55,23.30
2014,08,18,13,56,23.40
2014,08,18,13,57,23.50
2014,08,18,13,58,23.50
2014,08,18,13,59,23.60
2014,08,18,14,00,23.60
2014,08,18,14,01,23.70
2014,08,18,14,02,23.70
2014,08,18,14,03,23.80
2014,08,18,14,04,23.80
2014,08,18,14,05,23.90
2014,08,18,14,06,23.90
2014,08,18,14,07,24.00
2014,08,18,14,08,24.00
2014,08,18,14,09,24.00
2014,08,18,14,10,24.00
2014,08,18,14,11,24.00
2014,08,18,14,12,24.00
2014,08,18,14,13,24.10
2014,08,18,14,14,24.10
2014,08,18,14,15,24.10
2014,08,18,14,16,24.20
2014,08,18,14,17,24.20
2014,08,18,14,18,24.20
2014,08,18,14,19,24.20
2014,08,18,14,20,24.30
2014,08,18,14,21,24.30
2014,08,18,14,22,24.30
2014,08,18,14,23,24.30
2014,08,18,14,24,24.30
2014,08,18,14,25,24.30
2014,08,18,14,26,24.20
2014,08,18,14,27,24.20
2014,08,18,14,28,24.20
2014,08,18,14,29,24.20
2014,08,18,14,30,24.20
2014,08,18,14,31,24.20
2014,08,18,14,32,24.30
2014,08,18,14,33,24.30
2014,08,18,14,34,24.30
2014,08,18,14,35,24.40
2014,08,18,14,36,24.40
2014,08,18,14,37,24.50
2014,08,18,14,38,24.50
2014,08,18,14,39,24.50
2014,08,18,14,40,24.50
2014,08,18,14,41,24.40
2014,08,18,14,42,24.40
2014,08,18,14,43,24.40
2014,08,18,14,44,24.40
2014,08,18,14,45,24.40
2014,08,18,14,46,24.40
2014,08,18,14,47,24.50
2014,08,18,14,48,24.50
2014,08,18,14,49,24.50
2014,08,18,14,50,24.50
2014,08,18,14,51,24.50
2014,08,18,14,52,24.50
2014,08,18,14,53,24.50
2014,08,18,14,54,24.60
2014,08,18,14,55,24.60
2014,08,18,14,56,24.50
2014,08,18,14,57,24.50
2014,08,18,14,58,24.50
2014,08,18,14,59,24.60
2014,08,18,15,00,24.60
2014,08,18,15,01,24.70
2014,08,18,15,02,24.70
2014,08,18,15,03,24.70
2014,08,18,15,04,24.70
2014,08,18,15,05,24.70
2014,08,18,15,06,24.70
2014,08,18,15,07,24.80
2014,08,18,15,08,24.80
2014,08,18,15,09,24.80
2014,08,18,15,10,24.90
2014,08,18,15,11,25.00
2014,08,18,15,12,25.00
2014,08,18,15,13,25.10
2014,08,18,15,14,25.10
2014,08,18,15,15,25.20
2014,08,18,15,16,25.30
2014,08,18,15,17,25.40
2014,08,18,15,18,25.40
2014,08,18,15,19,25.50
2014,08,18,15,20,25.50
2014,08,18,15,21,25.60
2014,08,18,15,22,25.70
2014,08,18,15,23,25.70
2014,08,18,15,24,25.70
2014,08,18,15,25,25.70
2014,08,18,15,26,25.70
2014,08,18,15,27,25.80
2014,08,18,15,28,25.80
2014,08,18,15,29,25.90
2014,08,18,15,30,25.90
2014,08,18,15,31,25.90
2014,08,18,15,32,25.90
2014,08,18,15,33,25.90
2014,08,18,15,34,25.90
2014,08,18,15,35,25.80
2014,08,18,15,36,25.80
2014,08,18,15,37,25.80
2014,08,18,15,38,25.80
2014,08,18,15,39,25.80
2014,08,18,15,40,25.80
2014,08,18,15,41,25.80
2014,08,18,15,42,25.70
2014,08,18,15,43,25.70
2014,08,18,15,44,25.60
2014,08,18,15,45,25.60
2014,08,18,15,46,25.60
2014,08,18,15,47,25.60
2014,08,18,15,48,25.60
2014,08,18,15,49,25.60
2014,08,18,15,50,25.60
2014,08,18,15,51,25.70
2014,08,18,15,52,25.70
2014,08,18,15,53,25.80
2014,08,18,15,54,25.80
2014,08,18,15,55,25.90
2014,08,18,15,56,26.00
2014,08,18,15,57,26.00
2014,08,18,15,58,26.10
2014,08,18,15,59,26.10
2014,08,18,16,00,26.10
2014,08,18,16,01,26.10
2014,08,18,16,02,26.10
2014,08,18,16,03,26.10
2014,08,18,16,04,26.20
2014,08,18,16,05,26.20
2014,08,18,16,06,26.20
2014,08,18,16,07,26.20
2014,08,18,16,08,26.20
2014,08,18,16,09,26.20
2014,08,18,16,10,26.20
2014,08,18,16,11,26.10
2014,08,18,16,12,26.10
2014,08,18,16,13,26.00
2014,08,18,16,14,26.00
2014,08,18,16,15,26.00
2014,08,18,16,16,26.00
2014,08,18,16,17,26.00
2014,08,18,16,18,26.00
2014,08,18,16,19,25.90
2014,08,18,16,20,25.90
2014,08,18,16,21,25.90
2014,08,18,16,22,25.90
2014,08,18,16,23,25.90
2014,08,18,16,24,25.90
2014,08,18,16,25,25.80
2014,08,18,16,26,25.80
2014,08,18,16,27,25.70
2014,08,18,16,28,25.70
2014,08,18,16,29,25.70
2014,08,18,16,30,25.70
2014,08,18,16,31,25.60
2014,08,18,16,32,25.60
2014,08,18,16,33,25.60
2014,08,18,16,34,25.50
2014,08,18,16,35,25.50
2014,08,18,16,36,25.50
2014,08,18,16,37,25.50
2014,08,18,16,38,25.60
2014,08,18,16,39,25.60
2014,08,18,16,40,25.60
2014,08,18,16,41,25.60
2014,08,18,16,42,25.60
2014,08,18,16,43,25.60
2014,08,18,16,44,25.50
2014,08,18,16,45,25.50
2014,08,18,16,46,25.50
2014,08,18,16,47,25.50
2014,08,18,16,48,25.50
2014,08,18,16,49,25.60
2014,08,18,16,50,25.60
2014,08,18,16,51,25.60
2014,08,18,16,52,25.60
2014,08,18,16,53,25.60
2014,08,18,16,54,25.60
2014,08,18,16,55,25.60
2014,08,18,16,56,25.60
2014,08,18,16,57,25.50
2014,08,18,16,58,25.50
2014,08,18,16,59,25.40
2014,08,18,17,00,25.40
2014,08,18,17,01,25.40
2014,08,18,17,02,25.40
2014,08,18,17,03,25.40
2014,08,18,17,04,25.40
2014,08,18,17,05,25.40
2014,08,18,17,06,25.40
2014,08,18,17,07,25.40
2014,08,18,17,08,25.50
2014,08,18,17,09,25.50
2014,08,18,17,10,25.50
2014,08,18,17,11,25.50
2014,08,18,17,12,25.60
2014,08,18,17,13,25.60
2014,08,18,17,14,25.60
2014,08,18,17,15,25.50
2014,08,18,17,16,25.40
2014,08,18,17,17,25.40
2014,08,18,17,18,25.30
2014,08,18,17,19,25.20